Regional Weather Roundup
Issued by NWS Columbia, SC

Home | Current Version | Previous Version | Text Only | Print | Product List | Glossary On
Versions: 1 2 3 4 5 6 7 8 9 10 11 12 13 14 15 16 17 18 19 20 21 22 23 24 25 26 27 28 29 30 31 32 33 34 35 36 37 38 39 40 41 42 43 44 45 46 47 48 49 50
000
ASUS42 KCAE 292110
RWRCAE
REGIONAL WEATHER ROUNDUP
NATIONAL WEATHER SERVICE COLUMBIA SC
500 PM EDT SAT APR 29 2017

NOTE: "FAIR" INDICATES FEW OR NO CLOUDS BELOW 12,000 FEET WITH NO
SIGNIFICANT WEATHER AND/OR OBSTRUCTIONS TO VISIBILITY.

NOT ALL STATIONS ARE QUALITY CONTROLLED BY THE NATIONAL
WEATHER SERVICE. USE DATA WITH CAUTION...ESPECIALLY
DEWPOINT OBSERVATIONS.

SCZ001>056-GAZ040-063>065-077-292200-
...UPSTATE SOUTH CAROLINA...

CITY           SKY/WX    TMP DP  RH WIND       PRES   REMARKS
ANDERSON       CLOUDY    81  71  71 SE7       30.13F
LIBERTY        CLOUDY    78  71  80 S8        30.14R
SPARTANBURG    CLOUDY    79  70  73 S5        30.15F
CLEMSON        CLOUDY    80  71  74 CALM      30.15S
GREENVILLE     MOSUNNY   80  70  71 S15       30.16S
GREENWOOD      MOSUNNY   81  70  69 S6        30.15F
GREER          CLOUDY    78  70  76 S12       30.15S
ROCK HILL      PTSUNNY   84  70  62 SW9       30.15F
CHESTER        CLEAR     82  68  61 S7        30.16S
LAURENS        CLOUDY    79  72  78 S7        30.15F


...CENTRAL SOUTH CAROLINA...

CITY           SKY/WX    TMP DP  RH WIND       PRES   REMARKS
COLUMBIA APT   CLOUDY    89  64  43 S12       30.12F
COLUMBIA OWENS CLOUDY    88  64  44 S9        30.14S
MCENTIRE ANGB  CLOUDY    87  67  52 S9        30.14F
ORANGEBURG     MOSUNNY   86  67  52 S13       30.14F
SUMTER SHAW    MOSUNNY   87  67  51 S13       30.12F
NEWBERRY       PTCLDY    82  72  69 SW3       30.17F
AIKEN          FAIR      84  66  54 S8        30.17S
BARNWELL       MOCLDY    88  68  51 SE9       30.13F
MANNING        FAIR      84  66  54 MISG      30.15F
CAMDEN         FAIR      88  66  48 SE9       30.14F
LANCASTER      CLEAR     84  70  61 S9        30.15S


...EASTERN AND COASTAL SOUTH CAROLINA...

CITY           SKY/WX    TMP DP  RH WIND       PRES   REMARKS
MYRTLE BEACH   MOSUNNY   81  72  74 S16G24    30.19F
N MYRTLE BCH   SUNNY     79  72  79 S16       30.19F
CONWAY         FAIR      82  72  69 SE10G17   30.16F HAZE
MARION         FAIR      88  64  45 S8        30.15S
HARTSVILLE     FAIR      86  66  51 S9        30.14F
FLORENCE       PTSUNNY   87  68  52 S7        30.14F
DARLINGTON     PTSUNNY   88  68  51 S10       30.14F
CHARLESTON APT CLOUDY    82  67  60 S15       30.18F
MOUNT PLEASANT FAIR      81  72  74 S10       30.19F
WALTERBORO     CLOUDY    82  70  65 S14       30.18S
BEAUFORT       MOSUNNY   82  72  71 S9        30.18F


...EASTERN GEORGIA...

CITY           SKY/WX    TMP DP  RH WIND       PRES   REMARKS
AUGUSTA BUSH F MOSUNNY   91  69  48 SE10      30.10F HX  96
AUGUSTA DANIEL MOSUNNY   89  65  44 VRB6      30.12F
THOMSON        MOSUNNY   87  69  55 SW7       30.16F
WASHINGTON     FAIR      86  72  62 S9        30.11F
CLAXTON        FAIR      88  69  52 E9        30.12F
SYLVANIA       PTCLDY   N/A N/A N/A SE7       30.14S
STATESBORO     MOSUNNY   87  66  49 S12       30.12F
SAVANNAH       PTSUNNY   85  66  53 SE15      30.16F


...SOUTHERN NORTH CAROLINA...

CITY           SKY/WX    TMP DP  RH WIND       PRES   REMARKS
CHARLOTTE      PTSUNNY   84  70  62 SW7       30.14F
MONROE         PTSUNNY   84  69  60 S9        30.14F
WADESBORO      MOCLDY    87  67  51 S7        30.13F
ROCKINGHAM     PTCLDY    87  66  50 SW9       30.14S
RUTHERFORDTON  MOSUNNY   85  70  60 S15       30.14F
ASHEVILLE      LGT RAIN  79  65  62 S9        30.17F

$$



USA.gov is the U.S. government's official web portal to all federal, state and local government web resources and services.